Location: Gokavaram
(16.9752°N, 81.0696°E)
Time: 11:42:29
(UTC+00:00)

YAOGAN 3 - Pass Details

Date: 15 May 2026
Orbit: 594 x 597 km, 97.8° (Epoch: 9 June)

Event Time Altitude Azimuth Distance (km) Brightness Sun altitude
Exits shadow 13:43:46 - 164° (SSE) 2,592 7.4 -10.6°
Reaches altitude 10° 13:45:22 10° 162° (SSE) 1,926 6.7 -10.9°
Maximum altitude 13:49:32 72° 78° (ENE) 626 4.4 -11.8°
Drops below altitude 10° 13:53:42 10° 354° (N) 1,928 7.5 -12.7°
Sets 13:55:52 0° 352° (N) 2,831 8.4 -13.2°
